This is the latest recevied weather packets stored in our database for station/object W8UFO-13. If no packets are shown the sender has not sent any weather packets the latest 10 day(s).
| Time | Temp. | Humidity | Pressure | Rain* | Wind** | Luminosity | Snow |
|---|---|---|---|---|---|---|---|
| 1777911557 | 21.11° C | 54% | 1018.3 hPa | 0 mm | - | - | - |
| 1777911256 | 21.11° C | 52% | 1018.4 hPa | 0 mm | - | - | - |
| 1777910957 | 21.11° C | 53% | 1018.4 hPa | 0 mm | - | - | - |
| 1777910657 | 21.11° C | 52% | 1018.6 hPa | 0 mm | - | - | - |
| 1777910357 | 21.11° C | 52% | 1018.6 hPa | 0 mm | - | - | - |
| 1777910056 | 21.67° C | 53% | 1018.6 hPa | 0 mm | - | - | - |
| 1777909756 | 21.11° C | 54% | 1018.6 hPa | 0 mm | - | - | - |
| 1777909457 | 21.11° C | 55% | 1018.6 hPa | 0 mm | - | - | - |
| 1777909157 | 20.56° C | 57% | 1018.6 hPa | 0 mm | - | - | - |
| 1777908856 | 20° C | 55% | 1018.5 hPa | 0 mm | - | - | - |
| 1777908556 | 20° C | 56% | 1018.8 hPa | 0 mm | - | - | - |
| 1777908256 | 19.44° C | 56% | 1018.8 hPa | 0 mm | - | - | - |
| 1777907957 | 18.89° C | 59% | 1018.9 hPa | 0 mm | - | - | - |
| 1777907656 | 18.89° C | 60% | 1018.9 hPa | 0 mm | - | - | - |
| 1777907356 | 18.89° C | 59% | 1018.8 hPa | 0 mm | - | - | - |
| 1777907056 | 18.33° C | 60% | 1018.9 hPa | 0 mm | - | - | - |
| 1777906756 | 18.33° C | 61% | 1018.8 hPa | 0 mm | - | - | - |
| 1777906457 | 17.78° C | 60% | 1018.9 hPa | 0 mm | - | - | - |
| 1777906156 | 17.78° C | 63% | 1019 hPa | 0 mm | - | - | - |
| 1777905856 | 17.78° C | 62% | 1019.1 hPa | 0 mm | - | - | - |
| 1777905556 | 17.22° C | 62% | 1019.3 hPa | 0 mm | - | - | - |
| 1777905256 | 17.22° C | 64% | 1019.4 hPa | 0 mm | - | - | - |
| 1777904957 | 16.67° C | 63% | 1019.3 hPa | 0 mm | - | - | - |
| 1777904657 | 16.67° C | 64% | 1019.4 hPa | 0 mm | - | - | - |
| 1777904356 | 16.67° C | 64% | 1019.5 hPa | 0 mm | - | - | - |
* Rain latest hour (hover to see other rain measurements)
** Current wind speed in m/s (hover to see current wind gust speed)